{"data":{"norad_id":64488,"intl_designator":"2025-133S","name":"STARLINK-34217","alt_names":[],"object_type":"PAYLOAD","status":"ACTIVE","operator":null,"country":"US","launch_date":"2025-06-23","launch_site_code":"AFETR","launch_vehicle":null,"mission":null,"orbit_class":"UNKNOWN","rcs_meters":null,"size_class":null,"mass_kg":null,"dimensions":null,"purposes":["comms"],"wikipedia_slug":null,"has_3d_model":false,"image_url":null,"decayed_at":null,"tle_current":{"epoch":"2026-09-20T09:10:23.524608Z","epoch_age_seconds":141362,"freshness":"FRESH","line1":"1 64488U 25133S   26263.38221672  .00021696  00000+0  65126-3 0  9990","line2":"2 64488  53.1585 290.5623 0001775  78.5075 281.6127 15.34407177 70911","mean_motion":15.34407177,"eccentricity":0.0001775,"inclination_deg":53.1585,"raan_deg":290.5623,"arg_perigee_deg":78.5075,"mean_anomaly_deg":281.6127,"bstar":0.00065126,"rev_number":7091,"period_min":93.847319120041,"perigee_km":461.46766337747,"apogee_km":463.89615409007,"semimajor_km":6840.8189087338,"source":"CELESTRAK","updated_at":"2026-09-21T09:00:35.361459Z"}}}